Evanston, WY

7:17 AM MST on January 20, 2018 (GMT -0700)
Evanston-Uinta County Burns

Weather History for KEVW - June, 2013

Change the Weather History Date:

Saturday, June 15, 2013

  Actual Average Record
Temperature  
Mean Temperature 59 °F 57 °F  
Max Temperature 77 °F 71 °F 82 °F (2003)
Min Temperature 41 °F 44 °F 36 °F (2006)
Degree Days  
Heating Degree Days 6 8  
Month to date heating degree days 77 150  
Since 1 June heating degree days 77 150  
Since 1 July heating degree days 7968 8492  
Cooling Degree Days 0 0  
Month to date cooling degree days 9 0  
Year to date cooling degree days 9 1  
Since 1 June cooling degree days 9 0  
Growing Degree Days 8 (Base 50)    
Moisture  
Dew Point 23 °F    
Average Humidity 29    
Maximum Humidity 45    
Minimum Humidity 13    
Precipitation  
Precipitation 0.00 in 0.05 in 0.07 in (2015)
Month to date precipitation T 0.66  
Year to date precipitation 2.01 5.59  
Sea Level Pressure  
Sea Level Pressure 29.96 in    
Wind  
Wind Speed 9 mph (NW)    
Max Wind Speed 23 mph    
Max Gust Speed 35 mph    
Visibility 10 miles    
Events      
T = Trace of Precipitation, MM = Missing Value Source: NWS Daily Summary

Daily Weather History Graph

Daily Weather History Graph

Search for Another Location

Airport or City:

Trip Planner

Search our weather history database for the weather conditions in past years. The results will help you decide how hot, cold, wet, or windy it might be!

Date:

Astronomy

Jun. 15, 2013 Rise Set
Actual Time 5:50 AM MDT 8:59 PM MDT
Civil Twilight 5:16 AM MDT 9:32 PM MDT
Nautical Twilight 4:33 AM MDT 10:16 PM MDT
Astronomical Twilight 3:41 AM MDT 11:07 PM MDT
Moon 12:32 PM MDT (6/15) 12:32 AM MDT (6/15)
Length of Visible Light 16h 16m
Length of Day
15h 08m
Waxing Crescent, 40% of the Moon is Illuminated
Jun 15
Waxing Crescent
Jun 16
First Quarter
Jun 23
Full
Jun 29
Last Quarter
Jul 8
New

Hourly Weather History & Observations

Time (MDT) Temp. Windchill Dew Point Humidity Pressure Visibility Wind Dir Wind Speed Gust Speed Precip Events Conditions
12:53 AM 46.0 °F 41.9 °F 18.0 °F 33% 30.01 in 10.0 mi East 8.1 mph - N/A   Clear
1:53 AM 44.1 °F 40.1 °F 18.0 °F 35% 30.01 in 10.0 mi East 6.9 mph - N/A   Clear
2:53 AM 45.0 °F 40.6 °F 18.0 °F 34% 29.99 in 10.0 mi ENE 8.1 mph - N/A   Clear
3:53 AM 45.0 °F 42.6 °F 17.1 °F 33% 29.98 in 10.0 mi NE 4.6 mph - N/A   Clear
4:53 AM 43.0 °F 38.8 °F 19.9 °F 40% 29.98 in 10.0 mi NNE 6.9 mph - N/A   Clear
5:53 AM 42.1 °F 38.4 °F 19.9 °F 41% 30.00 in 10.0 mi NE 5.8 mph - N/A   Clear
6:53 AM 41.0 °F 38.0 °F 21.9 °F 47% 30.03 in 10.0 mi North 4.6 mph - N/A   Clear
7:53 AM 46.9 °F - 21.9 °F 37% 30.03 in 10.0 mi North 3.5 mph - N/A   Clear
8:53 AM 50.0 °F - 23.0 °F 35% 30.03 in 10.0 mi ENE 4.6 mph - N/A   Clear
9:53 AM 55.9 °F - 23.0 °F 28% 30.00 in 10.0 mi Variable 5.8 mph - N/A   Clear
10:53 AM 61.0 °F - 23.0 °F 23% 29.99 in 10.0 mi NE 5.8 mph - N/A   Clear
11:53 AM 66.0 °F - 25.0 °F 21% 29.97 in 10.0 mi WSW 6.9 mph - N/A   Clear
12:53 PM 69.1 °F - 24.1 °F 18% 29.95 in 10.0 mi West 11.5 mph 16.1 mph N/A   Clear
1:53 PM 75.0 °F - 24.1 °F 15% 29.92 in 10.0 mi SSW 10.4 mph 25.3 mph N/A   Clear
2:53 PM 75.0 °F - 23.0 °F 14% 29.91 in 10.0 mi West 23.0 mph 29.9 mph N/A   Partly Cloudy
3:53 PM 73.9 °F - 19.9 °F 13% 29.90 in 10.0 mi WSW 16.1 mph 32.2 mph N/A   Partly Cloudy
4:53 PM 73.9 °F - 24.1 °F 16% 29.91 in 10.0 mi West 13.8 mph 27.6 mph N/A   Scattered Clouds
5:53 PM 75.9 °F - 21.0 °F 13% 29.90 in 10.0 mi WSW 20.7 mph 27.6 mph N/A   Clear
6:53 PM 72.0 °F - 25.0 °F 17% 29.92 in 10.0 mi West 16.1 mph - N/A   Clear
7:53 PM 68.0 °F - 28.9 °F 23% 29.93 in 10.0 mi WNW 13.8 mph - N/A   Clear
8:53 PM 64.0 °F - 28.9 °F 27% 29.95 in 10.0 mi West 8.1 mph - N/A   Clear
9:53 PM 63.0 °F - 25.0 °F 24% 29.94 in 10.0 mi WSW 3.5 mph - N/A   Clear
10:53 PM 60.1 °F - 30.0 °F 32% 29.95 in 10.0 mi South 4.6 mph - N/A   Clear
11:53 PM 59.0 °F - 28.9 °F 32% 29.94 in 10.0 mi Variable 5.8 mph - N/A   Clear